Weather in Castres

France     43°36′24″N   2°14′12″E
temp.,
°C
wind,
m/s
gust,
m/s
humid.,
%
clouds,
%
prec.,
mm/h
press.,
hPa
HPBL,
m
12 april, mon
mon1223:00+5w4109856 0.2 1022661
02:00+3nw4119738 0.4 1024559
05:00+2wnw4109880 0.1 1025550
08:00+2wnw51198100 0.2 1027655
11:00+3wnw5890100 0.1 1028823
14:00+6wnw697227 0.1 10271315
17:00+11nw7104419 0.0 10251835
20:00+7wnw510614 0.0 1026581
13 april, tue
tue1323:00+3w35790 0.0 1029112
02:00+1nw11840 0.0 102914
05:00−1nw11805 0.0 102916
08:000nnw1173100 0.0 102932
11:00+7nnw334843 0.0 1028468
14:00+12nw3539100 0.0 10261114
17:00+12nw3342100 0.0 10241008
20:00+8w116278 0.0 102413
14 april, wed
wed1423:00+5sse11695 0.0 102511
02:00+4ese117096 0.0 102411
05:00+3se2269100 0.0 102317
08:00+4se227199 0.0 102328
11:00+11sse115067 0.0 1022717
14:00+14wnw224291 0.0 10201381
17:00+14nw324362 0.0 10191232
20:00+10ssw11621 0.0 101926
15 april, thu
thu1523:00+6se33651 0.0 102137
02:00+5se33600 0.0 102148
05:00+4ese33717 0.0 102040
08:00+4ese22685 0.0 102040
11:00+12wsw014689 0.0 1019854
14:00+15wnw224071 0.0 10181599
17:00+15wnw224016 0.0 10161727
20:00+10sse346114 0.0 101692
16 april, fri
fri1623:00+6se335996 0.0 101851
02:00+5se33524 0.0 101853
05:00+6se345599 0.0 101789
08:00+6s236195 0.0 1017121
11:00+11wsw34515 0.0 1017974
14:00+12wnw46465 0.0 10151579
17:00+12nw574286 0.0 10142184
20:00+8nw2561100 0.0 1015286